Hourly Data Report for October 21, 2015

All times are specified in Local Standard Time (LST). Add 1 hour to adjust for Daylight Saving Time where and when it is observed.

RESOLUTE BAY A
NUNAVUT

74°43'01.000" N
94°58'10.000" W
67.70 m
2403498
71924
YRB

Download Data

Hourly Data (October 2015)
Hourly Data Report for October 21, 2015
Temp Definition
°C
Dew Point Temp Definition
°C
Rel Hum Definition
%
Wind Dir Definition
10's deg

Wind Spd Definition
km/h
Visibility Definition
km
Stn Press Definition
kPa
Hmdx Definition


Wind Chill Definition


Weather Definition


TIME
00:00 Legend Double Dagger -14.2 -15.9 87 27 30 16.1 100.17   -25 Snow
01:00 Legend Double Dagger -14.3 -16.0 87 26 29 16.1 100.17   -25 Snow
02:00 Legend Double Dagger -13.8 -15.4 88 27 31 16.1 100.14   -25 Snow
03:00 Legend Double Dagger -13.5 -15.1 88 26 38 6.4 100.10   -25 Snow,Blowing Snow
04:00 Legend Double Dagger -13.1 -14.7 88 26 35 4.0 100.06   -24 Snow,Blowing Snow
05:00 Legend Double Dagger -12.4 -13.9 89 25 35 1.6 99.99   -23 Snow,Blowing Snow
06:00 Legend Double Dagger -12.1 -13.6 89 26 43 1.6 99.92   -24 Snow,Blowing Snow
07:00 Legend Double Dagger -11.4 -12.7 90 26 43 1.2 99.85   -23 Snow,Blowing Snow
08:00 Legend Double Dagger -10.8 -12.1 90 29 28 0.8 99.82   -20 Snow,Blowing Snow
09:00 Legend Double Dagger -10.6 -11.9 90 29 34 1.2 99.80   -21 Snow,Blowing Snow
10:00 Legend Double Dagger -10.0 -11.3 90 27 44 0.4 99.75   -21 Snow,Blowing Snow
11:00 Legend Double Dagger -9.6 -10.9 90 28 44 0.4 99.74   -21 Snow,Blowing Snow
12:00 Legend Double Dagger -9.7 -11.0 90 27 46 0.4 99.70   -21 Snow,Blowing Snow
13:00 Legend Double Dagger -10.0 -11.3 90 28 56 0.4 99.68   -22 Snow,Blowing Snow
14:00 Legend Double Dagger -11.4 -12.9 89 30 46 0.4 99.75   -23 Snow,Blowing Snow
15:00 Legend Double Dagger -13.2 -14.9 87 31 45 0.4 99.78   -26 Snow,Blowing Snow
16:00 Legend Double Dagger -13.3 -15.2 86 31 35 0.4 99.82   -25 Snow,Blowing Snow
17:00 Legend Double Dagger -13.4 -15.1 87 31 32 0.8 99.82   -24 Snow,Blowing Snow
18:00 Legend Double Dagger -13.2 -14.8 88 31 25 1.6 99.82   -23 Snow,Blowing Snow
19:00 Legend Double Dagger -13.0 -14.7 87 31 25 4.8 99.81   -23 Snow
20:00 Legend Double Dagger -13.1 -14.8 87 30 33 8.1 99.77   -24 Snow,Blowing Snow
21:00 Legend Double Dagger -13.1 -14.7 88 31 29 9.7 99.76   -23 Snow,Blowing Snow
22:00 Legend Double Dagger -12.8 -14.7 86 31 23 12.9 99.76   -22 Snow
23:00 Legend Double Dagger -12.7 -14.4 87 31 32 12.9 99.73   -23 Snow

Notes on Data Quality.

Legend

  • E = Estimated
  • M = Missing
  • NA = Not Available
  • ‡ = Partner data that is not subject to review by the National Climate Archives
Date modified: